{"data":{"norad_id":53038,"intl_designator":"2022-076BE","name":"STARLINK-4156","alt_names":[],"object_type":"PAYLOAD","status":"ACTIVE","operator":null,"country":"US","launch_date":"2022-07-07","launch_site_code":"AFETR","launch_vehicle":null,"mission":null,"orbit_class":"UNKNOWN","rcs_meters":null,"size_class":null,"mass_kg":null,"dimensions":null,"purposes":["comms"],"wikipedia_slug":null,"has_3d_model":false,"image_url":null,"decayed_at":null,"tle_current":{"epoch":"2026-05-25T02:43:58.082016Z","epoch_age_seconds":59196,"freshness":"FRESH","line1":"1 53038U 22076BE  26145.11386669  .00000413  00000+0  44012-4 0  9996","line2":"2 53038  53.2154  91.0386 0001118  82.6558 277.4562 15.08839590214663","mean_motion":15.0883959,"eccentricity":0.0001118,"inclination_deg":53.2154,"raan_deg":91.0386,"arg_perigee_deg":82.6558,"mean_anomaly_deg":277.4562,"bstar":4.4012e-5,"rev_number":21466,"period_min":95.437580611203,"perigee_km":538.97122300277,"apogee_km":540.51806133796,"semimajor_km":6917.8816421704,"source":"CELESTRAK","updated_at":"2026-05-25T13:38:17.285080Z"}}}